FW2418 Weather Reports


time (UTC)temp
C
wind
direction
speed
KPH
gust
KPH
rain 1hr
cm
rain 24hr
cm
rain mn
cm
humidity
%
barometer
mb
20260902033608 25 16 0.0 0.0 0.00 0.00 0.00 95 1014.0
20260902032608 25 16 0.0 0.0 0.00 0.00 0.00 95 1014.0
20260902031607 25 16 0.0 1.6 0.00 0.00 0.00 95 1014.0
20260902030535 25 15 0.0 1.6 0.00 0.00 0.00 95 1014.0
20260902025534 25 16 0.0 1.6 0.00 0.00 0.00 95 1014.0
20260902024502 25 16 1.6 1.6 0.00 0.00 0.00 95 1014.0
20260902023501 25 16 0.0 0.0 0.00 0.00 0.00 94 1014.0
20260902022500 25 16 0.0 0.0 0.00 0.00 0.00 94 1014.0
20260902021459 25 16 0.0 0.0 0.00 0.00 0.00 94 1014.4
20260902020458 26 16 0.0 0.0 0.00 0.00 0.00 94 1014.4
20260902015458 26 15 0.0 0.0 0.00 0.00 0.00 93 1014.0
20260902014426 26 16 0.0 0.0 0.00 0.00 0.00 93 1014.0
20260902013425 26 16 0.0 0.0 0.00 0.00 0.00 93 1014.0
20260902012424 26 15 0.0 0.0 0.00 0.00 0.00 92 1014.0
20260902011423 26 16 0.0 0.0 0.00 0.00 0.00 92 1013.7
20260902010422 26 16 0.0 1.6 0.00 0.00 0.00 91 1013.7
20260902005421 26 15 0.0 1.6 0.00 0.00 0.00 91 1013.3
20260902004420 26 8 0.0 1.6 0.00 0.00 0.00 90 1013.3
20260902003419 27 5 0.0 1.6 0.00 0.00 0.00 89 1013.7
20260902002418 27 13 1.6 1.6 0.00 0.00 0.00 89 1013.7
20260902001417 27 34 1.6 3.2 0.00 0.00 0.00 88 1013.7
20260902000416 27 6 1.6 4.8 0.00 0.00 0.00 87 1013.7
20260901235415 27 358 1.6 4.8 0.00 0.00 0.00 87 1013.7
20260901234414 27 61 1.6 4.8 0.00 0.00 0.00 86 1013.7
20260901233413 27 8 3.2 6.4 0.00 0.00 0.00 85 1013.7
20260901232413 27 57 1.6 4.8 0.00 0.00 0.00 85 1013.7
20260901231412 28 357 1.6 6.4 0.00 0.00 0.00 85 1013.3
20260901230411 28 61 3.2 8.0 0.00 0.00 0.00 85 1013.3
20260901225339 28 47 3.2 8.0 0.00 0.00 0.00 84 1013.3
20260901224306 28 37 3.2 8.0 0.00 0.00 0.00 84 1013.3
20260901223305 28 43 3.2 8.0 0.00 0.00 0.00 83 1013.3
20260901222306 28 42 3.2 11.3 0.00 0.00 0.00 83 1013.0
20260901221304 29 47 3.2 12.9 0.00 0.00 0.00 81 1013.0
20260901220232 29 60 3.2 12.9 0.00 0.00 0.00 83 1012.7
20260901215231 29 34 3.2 12.9 0.00 0.00 0.00 83 1012.7
20260901214230 29 49 6.4 14.5 0.00 0.00 0.00 81 1012.7
20260901213229 29 52 3.2 11.3 0.00 0.00 0.00 80 1013.0
20260901212228 29 49 3.2 8.0 0.00 0.00 0.00 78 1012.7
20260901211228 30 66 3.2 9.7 0.00 0.00 0.00 77 1013.0
20260901210125 30 46 3.2 12.9 0.00 0.00 0.00 75 1012.7
20260901205052 30 77 3.2 14.5 0.00 0.00 0.00 75 1013.0
20260901204020 30 38 3.2 12.9 0.00 0.00 0.00 76 1013.0
20260901203020 30 33 4.8 9.7 0.00 0.00 0.00 77 1013.0
20260901202019 30 40 3.2 8.0 0.00 0.00 0.00 75 1013.0
20260901201018 30 60 3.2 8.0 0.00 0.00 0.00 75 1013.0
20260901195946 30 67 3.2 8.0 0.00 0.00 0.00 73 1013.0
20260901194945 30 45 1.6 8.0 0.00 0.00 0.00 73 1013.4
20260901193945 30 109 1.6 11.3 0.00 0.00 0.00 73 1013.4
20260901192944 30 84 3.2 11.3 0.00 0.00 0.00 73 1013.4
20260901191943 30 27 3.2 9.7 0.00 0.00 0.00 74 1013.7
20260901190911 30 57 3.2 11.3 0.00 0.00 0.00 73 1013.7
20260901185910 31 48 3.2 8.0 0.00 0.00 0.00 71 1013.7
20260901184838 31 28 3.2 9.7 0.00 0.00 0.00 70 1013.7
20260901183837 31 33 3.2 9.7 0.00 0.00 0.00 71 1013.7
20260901182837 31 117 1.6 9.7 0.00 0.00 0.00 73 1013.7
20260901181836 31 84 3.2 11.3 0.00 0.00 0.00 75 1013.7
20260901180835 30 33 4.8 14.5 0.00 0.00 0.00 75 1014.0
20260901175803 30 80 3.2 16.1 0.00 0.00 0.00 76 1014.0
20260901174802 31 53 4.8 16.1 0.00 0.00 0.00 74 1014.4
20260901173801 32 45 3.2 9.7 0.00 0.00 0.00 72 1014.4
20260901172801 31 68 3.2 8.0 0.00 0.00 0.00 73 1014.4
20260901171800 30 36 3.2 6.4 0.00 0.00 0.00 77 1014.4
20260901170759 29 25 1.6 6.4 0.00 0.00 0.00 82 1014.7
20260901165758 30 319 1.6 9.7 0.00 0.00 0.00 80 1014.7
20260901164757 30 309 1.6 11.3 0.00 0.00 0.00 81 1014.7
20260901163757 31 340 3.2 12.9 0.00 0.00 0.00 76 1014.7
20260901162756 31 62 3.2 11.3 0.00 0.00 0.00 73 1014.7
20260901161755 31 52 1.6 11.3 0.00 0.00 0.00 73 1014.7
20260901160754 31 24 3.2 11.3 0.00 0.00 0.00 72 1015.1
20260901155753 32 16 3.2 11.3 0.00 0.00 0.00 71 1015.1
20260901154752 31 17 4.8 12.9 0.00 0.00 0.00 72 1015.1
20260901153752 31 22 3.2 8.0 0.00 0.00 0.00 72 1015.1
20260901152751 31 54 3.2 9.7 0.00 0.00 0.00 71 1015.1
20260901151750 31 42 3.2 9.7 0.00 0.00 0.00 74 1015.1
20260901150749 30 12 3.2 9.7 0.00 0.00 0.00 77 1015.1
20260901145748 30 20 1.6 9.7 0.00 0.00 0.00 77 1015.1
20260901144747 30 26 3.2 9.7 0.00 0.00 0.00 77 1015.1
20260901143747 30 10 3.2 8.0 0.00 0.00 0.00 79 1015.1
20260901142714 30 24 3.2 6.4 0.00 0.00 0.00 80 1015.1
20260901141713 30 27 3.2 6.4 0.00 0.00 0.00 82 1014.7
20260901140641 29 336 1.6 6.4 0.00 0.00 0.00 82 1014.7
20260901135641 29 331 1.6 8.0 0.00 0.00 0.00 83 1015.1
20260901134640 28 42 3.2 8.0 0.00 0.00 0.00 84 1014.7
20260901133639 28 11 3.2 6.4 0.00 0.00 0.00 84 1014.7
20260901132639 28 64 1.6 6.4 0.00 0.00 0.00 85 1014.7
20260901131638 28 24 3.2 8.0 0.00 0.00 0.00 88 1014.7
20260901130637 27 65 3.2 8.0 0.00 0.00 0.00 91 1014.7
20260901125636 26 43 3.2 3.2 0.00 0.00 0.00 95 1014.7
20260901124635 25 47 1.6 3.2 0.00 0.00 0.00 99 1014.7
20260901123634 24 67 1.6 1.6 0.00 0.00 0.00 99 1014.7
20260901122634 24 34 0.0 1.6 0.00 0.00 0.00 99 1014.7
20260901121633 24 42 0.0 1.6 0.00 0.00 0.00 99 1014.3
20260901120632 23 25 0.0 0.0 0.00 0.00 0.00 99 1014.3
20260901115631 23 25 0.0 0.0 0.00 0.00 0.00 99 1014.3
20260901114630 23 24 0.0 0.0 0.00 0.00 0.00 99 1014.0
20260901113629 23 24 0.0 0.0 0.00 0.00 0.00 99 1014.0
20260901112629 23 25 0.0 0.0 0.00 0.00 0.00 99 1014.0
20260901111628 23 25 0.0 0.0 0.00 0.00 0.00 99 1013.7
20260901110627 23 25 0.0 0.0 0.00 0.00 0.00 99 1013.7
20260901105626 23 24 0.0 0.0 0.00 0.00 0.00 99 1013.3
20260901104452 23 25 0.0 0.0 0.00 0.00 0.00 99 1013.3
20260901103451 23 25 0.0 0.0 0.00 0.00 0.00 99 1013.3
20260901102450 23 24 0.0 0.0 0.00 0.00 0.00 99 1013.3
20260901101449 23 25 0.0 0.0 0.00 0.00 0.00 99 1013.3
20260901100448 23 24 0.0 0.0 0.00 0.00 0.00 99 1013.3
20260901095448 23 25 0.0 0.0 0.00 0.00 0.00 99 1013.3
20260901094447 23 24 0.0 0.0 0.00 0.00 0.00 99 1013.3
20260901093446 23 24 0.0 0.0 0.00 0.00 0.00 99 1013.3
20260901092445 23 24 0.0 0.0 0.00 0.00 0.00 99 1013.3
20260901091444 24 25 0.0 0.0 0.00 0.00 0.00 99 1013.0
20260901090341 24 25 0.0 0.0 0.00 0.00 0.00 99 1013.0
20260901085309 24 24 0.0 0.0 0.00 0.00 0.00 99 1013.0
20260901084308 24 25 0.0 0.0 0.00 0.00 0.00 99 1013.0
20260901083307 24 24 0.0 1.6 0.00 0.00 0.00 99 1013.0
20260901082306 24 25 0.0 1.6 0.00 0.00 0.00 99 1013.0
20260901081234 24 25 0.0 0.0 0.00 0.00 0.00 99 1013.4
20260901080233 24 25 0.0 1.6 0.00 0.00 0.00 99 1013.4
20260901075232 24 24 0.0 1.6 0.00 0.00 0.00 99 1013.4
20260901074232 24 24 1.6 1.6 0.00 0.00 0.00 99 1013.4
20260901073230 24 15 1.6 1.6 0.00 0.00 0.00 99 1013.4
20260901072229 23 15 0.0 0.0 0.00 0.00 0.00 99 1013.3
20260901071229 23 15 0.0 0.0 0.00 0.00 0.00 98 1013.3
20260901070228 23 15 0.0 0.0 0.00 0.00 0.00 98 1013.4
20260901065227 24 15 0.0 0.0 0.00 0.00 0.00 98 1013.7
20260901064226 24 15 0.0 1.6 0.00 0.00 0.00 98 1013.7
20260901063225 24 15 0.0 1.6 0.00 0.00 0.00 98 1013.7
20260901062224 24 15 0.0 0.0 0.00 0.00 0.00 98 1014.0
20260901061223 24 15 0.0 0.0 0.00 0.00 0.00 98 1014.0
20260901060222 24 15 0.0 0.0 0.00 0.00 0.00 98 1014.0
20260901055150 24 14 0.0 0.0 0.00 0.00 0.00 98 1014.4
20260901054149 24 15 0.0 0.0 0.00 0.00 0.00 98 1014.4
20260901053148 25 15 0.0 0.0 0.00 0.00 0.00 98 1014.4
20260901052147 25 15 0.0 0.0 0.00 0.00 0.00 98 1014.4
20260901051147 25 15 0.0 0.0 0.00 0.00 0.00 98 1014.7
20260901050146 25 15 0.0 0.0 0.00 0.00 0.00 97 1014.7
20260901045145 25 15 0.0 0.0 0.00 0.00 0.00 97 1014.7
20260901044144 25 15 0.0 0.0 0.00 0.00 0.00 97 1015.0
20260901043143 25 15 0.0 0.0 0.00 0.00 0.00 97 1015.1
20260901042142 25 15 0.0 0.0 0.00 0.00 0.00 97 1015.1
20260901041110 25 15 0.0 1.6 0.00 0.00 0.00 97 1015.1
20260901040008 25 15 1.6 1.6 0.00 0.00 0.00 97 1015.1
20260901035005 25 15 0.0 0.0 0.00 0.00 0.00 97 1015.1